Temperature
7 6 6 6 6 6 6 6 6 6 7 7 7 7 7 7 7 7 7 7 7 8 7 7 7 7 7 7 7 7 7 7 7 6 6 6 6 6 6 6 6 6 6
6 6 6 6 6 6 6 6 6 6 6 6 6 6 6 7 7 7 7 7 7 7 7 7 7 7 7 7 7 6 6 6 6 6 6 6 6 6 6 6 5 5 5
6 6 6 6 6 6 6 5 5 5 5 5 5 5 6 6 6 6 6 6 6 6 6 6 6 6 6 6 6 6 6 5 5 5 5 5 5 5 5 5 5 5 5
5 5 5 5 5 5 5 5 5 5 5 5 5 5 5 5 5 6 6 6 6 6 6 6 6 6 6 6 5 5 5 5 5 4 4 4 4 4 4 4 4 4 4
5 5 5 5 5 5 4 4 4 4 4 4 4 4 4 5 5 5 5 5 5 5 5 5 5 5 5 5 5 4 4 4 4 4 4 3 3 3 3 3 3 3 3
5 5 4 4 4 4 4 4 4 4 4 4 4 4 4 4 4 4 4 4 4 4 4 4 4 4 4 4 4 4 3 3 3 3 3 3 3 3 3 2 2 2 2
4 4 4 4 4 4 4 4 3 3 3 3 3 3 3 3 3 3 3 3 4 4 4 3 3 3 3 3 3 3 3 3 3 3 2 2 2 2 2 2 2 2 2
3 4 3 3 3 3 3 3 3 3 3 3 3 3 3 3 3 3 3 3 3 3 3 3 3 3 2 2 2 2 2 2 2 2 2 2 2 1 1 1 1 1 1
3 3 3 3 3 3 3 3 2 2 2 2 2 2 2 2 2 2 2 2 2 2 2 2 2 2 2 1 1 2 2 2 1 1 1 1 1 1 1 1 1 0 0
2 2 2 2 2 2 2 2 2 2 2 2 2 2 2 2 2 2 2 1 1 1 1 1 1 1 1 1 1 1 1 1 1 1 1 1 1 0 0 0 0 -0 -0
2 2 2 1 1 1 1 1 1 1 1 1 1 1 1 1 1 1 1 1 1 1 1 1 1 1 0 0 0 0 0 0 0 0 0 0 0 -0 -0 -0 -0 -1 -1
1 1 1 1 1 1 1 1 1 1 1 1 1 1 1 1 1 1 0 0 0 -0 -0 -0 -0 -0 -0 -0 -0 -0 -0 -0 -0 -0 -0 -0 -0 -0 -0 -1 -1 -1 -1
1 0 0 0 0 0 0 0 0 0 0 0 0 -0 -0 -0 -0 -0 -0 -0 -0 -1 -1 -1 -1 -1 -1 -1 -1 -1 -1 -1 -1 -1 -1 -1 -1 -1 -1 -1 -1 -1 -1
-0 -0 -0 -0 -0 -0 -0 -0 -0 -0 -0 -0 -1 -1 -1 -1 -1 -1 -1 -1 -1 -1 -1 -1 -1 -1 -1 -1 -1 -1 -1 -1 -2 -2 -2 -2 -2 -2 -2 -2 -2 -2 -2
-1 -1 -1 -1 -1 -1 -1 -1 -1 -1 -1 -1 -1 -1 -1 -1 -1 -1 -1 -1 -1 -1 -2 -2 -2 -2 -2 -2 -2 -2 -2 -2 -2 -2 -2 -2 -2 -2 -2 -2 -3 -3 -3
-1 -1 -1 -1 -1 -1 -1 -1 -1 -1 -2 -2 -2 -2 -2 -2 -2 -2 -2 -2 -2 -2 -2 -2 -2 -2 -2 -2 -2 -2 -2 -3 -3 -3 -3 -3 -3 -3 -3 -3 -3 -3 -3
-2 -2 -2 -2 -2 -2 -2 -2 -2 -2 -2 -2 -2 -2 -2 -2 -2 -2 -2 -2 -3 -3 -3 -3 -3 -3 -3 -3 -3 -3 -3 -3 -3 -3 -4 -4 -4 -4 -4 -4 -4 -4 -4
-2 -2 -2 -2 -2 -2 -2 -2 -2 -2 -3 -3 -3 -3 -3 -3 -3 -3 -3 -3 -3 -3 -3 -3 -3 -4 -4 -4 -4 -4 -4 -4 -4 -4 -4 -4 -4 -4 -4 -4 -4 -4 -5
-3 -3 -3 -3 -3 -3 -3 -3 -3 -3 -3 -3 -3 -3 -4 -4 -4 -3 -3 -3 -3 -4 -4 -4 -4 -4 -4 -4 -4 -4 -4 -4 -4 -4 -4 -4 -4 -5 -5 -5 -5 -5 -5
-3 -3 -3 -3 -3 -3 -3 -3 -4 -4 -4 -4 -4 -4 -4 -4 -4 -4 -4 -4 -4 -4 -4 -4 -4 -5 -5 -5 -4 -4 -4 -4 -4 -5 -5 -5 -5 -5 -5 -5 -5 -5 -5
-4 -4 -4 -4 -4 -4 -4 -4 -4 -4 -4 -4 -4 -4 -5 -4 -4 -4 -4 -4 -5 -5 -5 -5 -5 -5 -5 -5 -5 -5 -5 -5 -5 -5 -5 -5 -5 -6 -6 -6 -6 -6 -6
-5 -5 -4 -4 -4 -4 -4 -4 -5 -5 -5 -5 -5 -5 -5 -5 -5 -5 -5 -5 -5 -5 -5 -5 -5 -5 -5 -5 -5 -5 -5 -5 -5 -5 -6 -6 -6 -6 -6 -6 -6 -6 -6
-5 -5 -5 -5 -5 -5 -5 -5 -5 -5 -5 -5 -5 -5 -5 -5 -5 -5 -5 -5 -5 -5 -6 -6 -6 -6 -6 -6 -6 -6 -6 -6 -6 -6 -6 -6 -6 -6 -6 -6 -6 -6 -6
-6 -6 -6 -6 -6 -6 -6 -6 -6 -6 -6 -6 -6 -6 -6 -6 -6 -6 -6 -6 -6 -6 -6 -6 -6 -6 -6 -6 -6 -6 -6 -6 -6 -6 -6 -7 -6 -6 -6 -6 -6 -7 -7
-6 -6 -6 -6 -6 -6 -6 -6 -6 -6 -6 -6 -6 -6 -6 -6 -6 -6 -6 -6 -6 -6 -6 -6 -6 -6 -6 -6 -6 -6 -6 -6 -7 -7 -7 -7 -7 -7 -7 -7 -7 -7 -7
-7 -7 -7 -7 -7 -7 -6 -6 -6 -7 -7 -7 -7 -7 -7 -7 -7 -7 -7 -7 -7 -7 -7 -7 -7 -7 -7 -7 -7 -7 -7 -7 -7 -7 -7 -7 -7 -7 -7 -7 -7 -7 -7
Wind_Speed
8 7 7 6 6 6 5 5 4 3 4 4 4 4 4 3 3 3 3 3 3 2 1 2 2 1 1 1 1 2 2 2 4 2 1 1 2 2 3 4 4 4 5
7 7 7 6 6 6 6 6 5 4 4 4 4 4 3 3 3 3 3 3 3 3 2 2 1 1 1 1 2 2 2 2 3 4 2 2 2 3 2 2 3 4 5
7 7 7 6 6 6 6 6 5 5 4 4 4 4 3 3 3 3 3 3 3 3 2 2 1 2 2 1 2 2 2 2 2 3 2 1 1 1 1 2 3 3 5
7 7 7 7 7 6 6 6 6 5 5 4 4 4 4 3 3 3 3 3 2 2 1 1 1 2 3 3 2 3 3 2 2 2 2 1 1 1 1 2 3 3 4
7 7 7 6 6 6 6 5 5 5 5 5 4 4 3 3 3 3 4 3 3 2 1 1 1 1 2 2 2 2 3 3 2 2 2 1 2 1 2 2 3 3 4
7 6 6 6 6 6 6 6 5 5 4 4 4 4 3 2 3 4 4 4 3 2 1 0 0 0 0 0 1 2 3 3 3 3 3 3 4 3 2 3 3 4 4
6 6 6 6 6 6 6 6 6 5 5 4 4 4 4 3 4 4 4 3 3 3 2 1 1 1 0 0 0 1 2 4 5 4 4 5 5 5 4 4 4 5 6
6 5 6 6 6 6 6 6 6 5 5 5 4 4 4 4 4 4 4 3 3 2 2 2 2 2 2 1 1 1 2 3 3 3 5 5 5 4 5 5 5 4 4
6 5 6 7 7 6 6 6 5 5 5 4 4 4 4 4 4 4 4 3 2 2 2 2 2 2 3 3 1 2 2 3 4 4 5 6 6 6 4 2 2 3 5
5 5 5 6 6 6 6 5 4 5 4 4 3 3 4 4 4 4 3 3 2 2 1 2 3 3 4 3 2 2 3 4 2 2 3 5 4 4 5 4 4 4 4
4 4 5 5 5 5 5 4 5 4 4 4 3 2 3 4 4 4 4 3 3 3 2 2 3 4 4 4 4 3 5 4 2 2 2 3 2 2 3 4 4 4 5
5 4 4 4 4 4 5 4 4 5 4 4 3 2 1 2 3 4 4 4 3 3 3 3 3 5 5 5 4 5 5 4 2 2 2 3 3 3 3 3 5 6 7
4 4 3 3 3 4 4 4 4 4 4 4 3 3 2 1 2 4 4 4 4 3 3 4 5 5 4 3 4 5 4 2 2 2 3 3 3 3 3 3 4 5 6
5 3 3 3 3 3 3 3 4 4 4 4 4 4 3 2 2 2 3 3 3 2 2 3 4 3 3 3 3 3 2 3 3 3 3 3 2 2 3 3 3 3 4
4 3 3 3 3 2 2 2 3 3 5 6 5 5 4 4 4 5 3 3 3 3 2 1 1 1 2 2 2 2 2 2 3 2 2 3 3 3 3 3 3 3 4
3 3 2 2 2 2 2 1 0 1 2 4 5 5 4 5 6 5 5 5 5 4 2 2 3 3 4 4 3 3 3 3 3 3 3 3 4 4 4 3 3 4 5
3 2 2 2 2 2 2 2 1 0 1 1 3 4 4 5 5 5 5 5 5 4 3 3 4 4 4 4 3 4 4 3 3 3 4 4 4 4 4 4 4 4 5
2 1 2 2 2 2 2 2 2 2 1 1 1 2 3 4 4 4 4 3 3 3 3 4 4 4 4 4 4 4 4 4 3 3 4 4 4 4 4 5 5 5 6
1 1 1 1 1 1 1 1 1 1 1 1 1 1 2 2 2 3 3 2 3 3 3 4 4 4 4 4 4 4 5 4 4 4 4 4 4 4 5 5 5 7 7
0 1 1 2 2 2 2 1 1 1 1 1 1 1 1 1 1 2 2 2 3 3 3 4 4 4 4 4 4 5 5 5 5 5 5 5 5 5 6 6 6 6 6
0 1 1 1 1 1 1 1 1 1 1 1 2 2 3 2 2 3 3 3 3 4 4 4 4 4 4 4 4 5 5 5 5 5 5 5 5 5 5 6 6 6 6
0 0 0 1 1 1 1 1 1 1 1 2 2 3 4 2 2 3 3 3 4 4 4 4 4 4 5 5 5 5 6 6 5 5 6 5 5 5 5 6 6 6 6
1 0 0 0 1 1 1 1 1 1 2 2 3 3 3 3 3 3 4 4 4 4 5 5 5 5 5 6 7 6 6 6 6 6 6 6 6 6 6 6 7 7 7
1 1 1 1 1 1 1 2 2 2 2 3 3 3 3 3 4 4 4 4 4 5 5 5 6 7 8 7 8 9 9 10 9 8 8 7 7 6 6 6 7 7 7
1 1 1 1 2 2 2 2 2 3 3 3 3 3 4 4 4 4 4 4 5 5 6 6 6 7 9 9 9 10 11 12 12 10 9 7 7 7 7 7 7 7 7
2 2 2 2 2 2 2 3 3 3 3 4 4 4 4 4 4 4 4 4 4 4 5 6 7 9 10 10 11 11 12 12 12 12 9 6 6 7 7 6 7 7 7
Wind_Direction
165 163 162 165 161 157 157 157 152 150 146 146 149 145 139 140 138 134 137 133 131 128 130 152 165 155 145 153 171 182 180 177 219 253 248 249 240 255 300 301 297 301 300
166 156 153 151 152 154 156 155 151 154 155 150 145 142 143 146 147 142 142 143 146 150 154 152 173 161 151 165 175 190 192 189 201 227 246 246 250 242 262 283 301 297 295
155 152 151 154 154 160 161 158 156 161 159 151 146 153 156 155 149 146 148 152 154 161 164 167 197 175 184 192 189 201 198 193 197 205 239 246 261 248 266 287 289 291 294
156 156 162 166 162 161 161 161 161 164 165 159 155 160 161 157 151 144 138 137 134 135 142 160 190 199 207 205 203 203 187 176 174 186 239 260 268 269 242 266 289 285 290
160 163 169 163 153 150 151 156 155 154 159 157 152 151 148 152 159 151 146 140 135 123 105 116 181 204 210 213 208 202 191 188 186 193 230 254 263 259 257 256 278 289 284
165 167 162 153 148 149 148 145 143 143 145 146 151 151 151 163 161 162 156 153 148 147 154 201 293 245 183 238 220 219 216 209 211 213 226 237 247 249 253 263 276 293 285
165 164 160 155 152 157 153 146 149 153 150 151 158 157 163 173 172 166 156 151 154 170 182 197 248 278 336 197 283 289 250 245 234 224 228 235 237 233 231 251 256 262 269
160 162 161 157 155 156 152 153 157 158 161 164 169 169 169 182 177 174 166 157 160 176 189 197 208 233 237 219 217 256 266 260 253 234 230 239 241 236 230 241 249 269 276
160 164 166 160 156 156 157 161 163 162 164 167 173 174 177 189 186 180 172 164 162 193 214 209 207 222 251 248 221 246 280 288 301 283 277 275 271 268 266 255 256 274 285
167 165 160 158 159 164 170 170 165 166 168 167 171 181 185 193 198 191 187 176 185 215 239 241 236 237 249 246 225 221 255 272 278 303 308 298 291 275 265 248 230 253 280
157 149 148 153 156 164 167 167 163 162 160 166 171 190 196 202 205 204 206 196 194 203 223 244 248 248 250 256 256 237 250 270 264 257 275 285 286 275 271 269 252 238 259
137 141 149 154 159 155 153 160 164 162 162 172 171 190 218 214 211 207 209 216 213 207 223 234 240 245 250 257 261 263 271 285 272 274 275 277 275 272 273 285 278 270 263
132 140 150 147 147 154 158 166 171 171 172 182 182 192 213 214 212 219 216 218 227 237 232 233 241 244 252 256 266 272 274 263 255 259 263 268 262 263 281 297 299 298 292
136 140 142 140 142 150 161 174 177 181 183 188 192 199 207 215 218 215 211 220 230 248 250 243 250 248 258 267 274 269 254 244 247 248 259 264 266 268 272 275 283 296 299
135 140 141 148 155 153 157 181 188 203 200 193 198 197 195 213 229 226 217 215 216 225 233 246 247 246 253 260 261 259 254 250 253 249 253 269 275 280 282 278 275 284 283
130 138 150 152 153 155 152 127 68 192 213 217 219 218 228 232 233 236 237 239 237 231 240 228 234 237 242 246 251 262 260 253 252 249 248 253 264 274 281 283 278 277 282
141 150 150 154 160 164 168 168 172 62 74 197 217 227 233 231 233 235 237 239 234 224 228 228 237 238 242 242 242 249 258 255 246 245 251 253 257 263 270 275 277 280 282
122 147 161 167 167 170 176 183 180 179 196 274 256 234 239 242 246 243 235 238 234 233 225 229 237 238 238 240 243 247 253 251 245 245 248 251 250 256 265 269 267 271 281
132 156 164 168 168 164 166 169 163 164 187 229 284 288 284 273 274 260 250 239 230 236 235 238 240 239 239 238 241 243 245 247 246 245 250 251 252 255 262 264 267 272 279
81 144 149 162 163 154 149 149 151 159 176 207 247 268 284 282 253 256 261 246 240 241 240 243 246 244 241 239 240 242 245 248 248 248 250 250 250 252 257 262 265 269 272
46 122 117 139 156 162 164 169 179 188 208 230 256 278 287 258 251 250 248 246 245 248 246 246 246 244 243 242 241 241 243 247 244 245 247 247 247 253 256 258 262 265 270
38 123 156 174 179 181 189 192 197 222 242 259 272 283 292 287 266 261 259 258 252 248 248 248 250 244 238 240 242 243 246 248 247 245 247 247 248 252 256 259 261 265 267
10 5 319 225 217 234 245 233 238 246 256 265 273 279 280 273 272 271 269 266 259 254 254 250 249 249 251 248 247 244 244 247 248 244 246 250 251 252 255 257 258 263 267
327 300 270 255 250 242 243 252 254 260 265 269 272 275 276 275 275 277 275 269 264 263 259 253 252 251 253 255 254 253 251 252 253 249 241 243 249 253 255 257 258 260 264
310 291 276 261 256 257 260 261 262 266 270 272 273 276 279 279 280 281 278 270 264 261 263 262 259 257 256 256 259 260 260 260 260 256 246 240 244 245 248 252 256 261 264
309 295 285 275 264 259 258 260 263 266 268 273 275 276 278 280 282 283 282 277 269 263 265 265 262 262 263 263 264 266 267 266 264 263 256 244 241 245 246 251 254 257 260
Height
1454 1457 1459 1462 1465 1467 1469 1472 1474 1476 1478 1480 1482 1484 1487 1489 1491 1493 1494 1496 1498 1500 1501 1503 1504 1505 1506 1508 1509 1510 1511 1512 1511 1512 1514 1515 1515 1515 1514 1514 1514 1513 1512
1451 1454 1456 1459 1462 1464 1467 1469 1472 1474 1476 1478 1480 1482 1484 1487 1488 1489 1491 1493 1495 1496 1498 1500 1501 1502 1503 1504 1505 1506 1507 1507 1508 1507 1508 1509 1510 1510 1509 1509 1509 1508 1508
1448 1451 1454 1457 1459 1462 1464 1467 1469 1472 1474 1476 1478 1480 1482 1484 1485 1487 1489 1491 1492 1493 1495 1496 1497 1498 1499 1500 1501 1502 1503 1503 1504 1504 1503 1504 1504 1505 1504 1504 1504 1504 1503
1446 1449 1452 1454 1457 1460 1462 1465 1467 1469 1472 1474 1476 1478 1480 1482 1483 1485 1487 1488 1489 1490 1492 1493 1494 1495 1495 1496 1497 1498 1499 1499 1500 1500 1499 1499 1499 1500 1500 1499 1498 1498 1498
1444 1447 1450 1452 1455 1457 1460 1462 1464 1467 1469 1471 1473 1475 1477 1479 1481 1482 1484 1485 1486 1487 1488 1490 1490 1491 1491 1492 1493 1493 1494 1494 1495 1495 1495 1495 1495 1495 1494 1494 1493 1492 1492
1442 1444 1447 1450 1452 1455 1457 1460 1462 1464 1467 1469 1471 1473 1475 1476 1478 1480 1481 1482 1483 1484 1485 1486 1487 1487 1488 1488 1489 1489 1490 1490 1490 1491 1491 1490 1490 1490 1490 1489 1489 1487 1485
1440 1442 1444 1447 1449 1452 1454 1457 1459 1462 1464 1466 1468 1470 1472 1474 1475 1476 1478 1479 1479 1480 1481 1482 1483 1483 1484 1485 1485 1485 1486 1486 1487 1487 1486 1486 1486 1486 1485 1484 1484 1483 1481
1437 1439 1442 1444 1446 1449 1451 1454 1456 1459 1462 1463 1465 1467 1469 1471 1472 1473 1474 1475 1476 1477 1478 1479 1479 1480 1480 1481 1481 1481 1481 1482 1482 1482 1482 1482 1482 1481 1481 1480 1479 1478 1477
1435 1437 1439 1441 1444 1446 1448 1451 1454 1456 1458 1460 1463 1464 1466 1467 1469 1470 1471 1471 1472 1473 1474 1475 1475 1476 1476 1477 1477 1477 1476 1477 1477 1477 1477 1477 1476 1476 1476 1475 1474 1473 1470
1432 1434 1437 1439 1441 1443 1446 1448 1451 1454 1455 1457 1459 1461 1463 1464 1465 1466 1467 1468 1468 1469 1470 1471 1472 1472 1473 1473 1473 1473 1472 1472 1472 1472 1472 1472 1471 1470 1470 1470 1469 1468 1466
1430 1432 1434 1436 1438 1441 1443 1446 1448 1450 1452 1454 1455 1457 1459 1460 1461 1463 1464 1464 1464 1465 1466 1466 1467 1468 1469 1469 1469 1469 1468 1468 1467 1467 1466 1466 1465 1465 1464 1464 1464 1463 1461
1428 1429 1432 1434 1436 1438 1440 1442 1445 1447 1448 1450 1451 1453 1455 1456 1457 1458 1460 1461 1461 1462 1462 1463 1463 1464 1464 1465 1464 1464 1464 1463 1462 1462 1461 1460 1460 1459 1459 1459 1459 1458 1457
1426 1427 1429 1431 1433 1435 1437 1439 1441 1443 1445 1446 1447 1449 1450 1452 1453 1455 1456 1457 1457 1458 1458 1459 1459 1460 1460 1460 1459 1459 1459 1458 1458 1457 1456 1455 1455 1454 1453 1453 1452 1452 1451
1424 1426 1427 1429 1431 1433 1435 1437 1438 1439 1441 1442 1443 1445 1446 1447 1449 1450 1451 1452 1453 1454 1454 1454 1455 1455 1455 1455 1454 1454 1454 1454 1453 1452 1451 1451 1450 1449 1449 1448 1447 1446 1444
1422 1424 1425 1427 1428 1430 1432 1433 1435 1436 1437 1439 1440 1441 1442 1443 1445 1446 1447 1448 1448 1449 1449 1449 1449 1449 1449 1449 1449 1449 1449 1449 1448 1447 1447 1446 1445 1444 1443 1443 1442 1440 1439
1421 1422 1423 1425 1426 1427 1428 1430 1432 1433 1435 1436 1437 1438 1439 1440 1441 1442 1443 1444 1444 1445 1445 1444 1444 1444 1444 1444 1444 1444 1444 1443 1443 1443 1442 1441 1440 1440 1439 1438 1437 1436 1434
1420 1421 1422 1423 1424 1425 1426 1427 1428 1430 1431 1433 1434 1434 1436 1436 1437 1438 1439 1439 1440 1440 1440 1439 1439 1439 1439 1439 1439 1439 1438 1438 1438 1437 1437 1436 1435 1435 1434 1433 1431 1430 1429
1419 1419 1420 1421 1422 1423 1424 1425 1426 1426 1427 1428 1430 1431 1432 1432 1433 1433 1434 1434 1434 1434 1434 1434 1434 1434 1434 1434 1434 1434 1433 1433 1432 1432 1431 1431 1430 1430 1428 1427 1426 1425 1424
1417 1418 1418 1419 1420 1421 1422 1423 1424 1424 1425 1425 1426 1427 1428 1429 1429 1430 1430 1430 1429 1429 1429 1429 1429 1429 1429 1429 1428 1428 1428 1427 1427 1426 1425 1425 1425 1424 1423 1422 1421 1420 1419
1415 1416 1416 1417 1418 1419 1420 1421 1421 1422 1422 1423 1423 1424 1424 1425 1425 1425 1425 1425 1425 1425 1425 1425 1424 1424 1424 1423 1423 1423 1422 1422 1421 1420 1420 1419 1419 1418 1418 1417 1416 1415 1413
1413 1414 1414 1415 1416 1417 1418 1418 1419 1419 1420 1420 1420 1421 1421 1421 1421 1421 1421 1421 1421 1420 1420 1419 1419 1419 1418 1418 1417 1417 1416 1416 1415 1415 1414 1414 1413 1413 1412 1411 1411 1410 1408
1412 1412 1413 1413 1414 1415 1415 1416 1416 1417 1417 1417 1417 1417 1417 1417 1417 1416 1416 1416 1416 1415 1415 1414 1414 1413 1412 1412 1411 1411 1410 1410 1409 1409 1409 1408 1408 1407 1406 1406 1405 1404 1403
1410 1410 1411 1411 1412 1412 1413 1413 1413 1414 1414 1414 1414 1413 1413 1413 1412 1412 1412 1411 1410 1410 1409 1409 1408 1407 1407 1406 1406 1405 1405 1404 1404 1403 1403 1402 1402 1401 1401 1400 1399 1399 1398
1408 1408 1408 1408 1409 1409 1410 1410 1410 1410 1410 1410 1410 1410 1409 1409 1408 1407 1406 1405 1405 1404 1403 1403 1402 1402 1401 1400 1400 1399 1399 1398 1398 1398 1397 1397 1396 1396 1395 1394 1394 1393 1393
1406 1406 1406 1406 1406 1406 1406 1406 1406 1406 1406 1406 1406 1406 1405 1404 1403 1402 1401 1400 1399 1398 1398 1397 1396 1396 1395 1394 1394 1393 1393 1392 1392 1392 1391 1391 1390 1390 1389 1389 1389 1388 1387
1404 1404 1403 1403 1403 1403 1403 1403 1402 1402 1402 1402 1402 1401 1400 1400 1399 1398 1396 1395 1394 1393 1392 1391 1391 1390 1389 1388 1388 1387 1386 1386 1386 1386 1385 1385 1384 1384 1384 1383 1383 1383 1382